Wind_Speed
51 50 50 50 51 53 54 54 55 57 59 58 58 58 57 58 58 60 61 63 64 64 63 62 62 62 63 63 64 64 64 63 63 63 64 63 61 57 53 50 48 46 44 43 43 43 44 45 47 48 49 50 50 50 49 48 47 46 45 44 42 41 40 40 41 42 43 43 43 42 41 40 39 39 38 37 36 35 35 34 32 31 31 32 36 38
49 49 49 50 51 53 54 54 55 57 58 58 58 57 57 57 57 57 58 58 58 58 57 55 54 54 54 55 56 57 57 57 57 58 59 61 62 61 58 55 52 49 46 44 43 43 44 45 47 49 50 50 50 50 49 47 46 45 44 43 42 41 41 42 43 44 45 45 44 43 42 41 40 40 39 38 37 36 36 34 32 31 31 33 37 40
46 46 47 48 49 51 52 53 53 55 56 57 57 57 57 57 56 56 55 54 53 52 50 49 47 47 47 47 47 48 48 48 48 49 51 54 56 58 57 56 54 51 48 46 44 44 44 45 47 49 50 51 51 51 50 48 46 45 45 44 44 43 44 45 46 47 48 48 47 45 43 42 42 42 41 39 38 37 37 35 32 31 32 35 38 41
43 44 44 44 46 48 49 51 52 53 55 56 57 57 57 57 56 55 54 53 51 50 48 47 46 45 45 44 44 43 43 43 43 44 46 48 50 52 53 53 53 51 50 48 47 46 46 46 47 49 51 52 53 53 52 50 48 46 46 46 46 46 47 48 49 50 50 50 49 48 45 43 43 43 41 40 39 38 37 35 33 32 33 36 39 41
42 41 40 40 42 44 46 48 50 52 53 55 56 57 57 57 56 55 54 53 52 50 49 48 47 47 46 45 44 44 43 43 43 43 45 47 49 50 51 51 52 52 51 50 49 49 48 49 49 50 52 53 55 55 54 52 49 48 48 48 48 49 50 51 51 52 52 52 51 50 47 45 44 43 41 40 39 39 37 35 33 33 34 37 40 42
42 40 38 38 39 41 43 46 48 51 52 53 54 55 55 56 55 55 54 53 52 51 50 49 48 48 47 46 45 45 44 44 44 44 46 48 50 51 52 52 52 52 52 52 52 52 52 52 52 53 54 56 57 57 55 53 50 49 49 49 51 52 52 53 54 54 55 54 53 51 49 47 44 42 41 40 40 39 37 35 34 34 36 39 42 43
44 42 39 38 38 39 41 44 47 49 50 51 52 52 53 53 53 54 53 53 52 51 50 49 48 47 46 46 45 45 45 45 45 45 46 48 50 51 52 53 53 53 53 53 53 54 54 55 55 56 57 58 58 58 55 52 50 50 50 52 53 54 55 55 56 56 56 55 54 52 49 46 43 41 40 40 40 39 37 35 35 36 38 41 43 44
44 43 41 40 39 39 40 42 45 46 48 48 49 49 50 50 51 51 51 51 50 49 48 47 46 45 44 44 44 44 44 44 43 43 44 45 47 49 50 51 52 52 52 53 54 55 55 56 57 57 58 59 59 57 55 52 51 52 53 54 55 56 56 57 57 56 55 54 52 50 47 44 41 40 40 40 40 38 36 35 36 38 41 43 45 45
42 42 42 41 40 39 40 42 44 45 46 46 47 47 48 48 48 48 48 48 47 46 45 44 44 43 43 42 42 42 42 41 41 41 41 42 43 44 46 47 48 49 51 52 53 54 55 55 56 56 57 57 57 55 54 52 53 54 55 56 57 57 57 56 56 54 53 51 49 46 44 42 40 39 39 39 39 37 35 35 37 40 43 45 46 46
40 41 41 42 42 41 41 42 43 43 44 45 46 46 46 46 46 45 45 45 44 43 42 42 41 41 41 40 40 40 40 40 40 40 40 41 41 42 42 43 45 46 48 50 51 52 52 53 53 54 54 54 53 53 52 52 53 54 55 56 56 56 55 54 52 50 49 47 45 43 41 40 39 38 38 38 37 36 34 35 38 42 45 47 48 47
40 40 40 42 43 43 43 43 43 42 43 43 44 44 43 43 43 42 42 41 40 39 39 39 39 38 38 38 37 37 38 39 40 40 40 40 40 40 40 41 43 44 46 47 48 49 49 49 49 49 50 49 49 49 49 50 51 52 53 53 53 52 50 49 48 46 45 44 43 41 40 38 38 37 37 36 35 34 34 36 39 43 46 48 49 48
40 40 40 41 42 43 44 44 44 43 42 41 41 41 41 41 40 39 39 38 37 37 36 36 36 36 36 35 35 35 36 38 39 39 38 38 38 38 38 40 41 43 43 44 44 44 44 44 45 45 45 45 45 45 46 47 48 48 49 48 47 46 45 44 44 44 43 42 41 40 39 38 37 36 35 34 34 34 35 37 41 44 47 49 49 48
41 40 39 39 39 40 41 42 41 41 40 39 39 39 39 38 38 38 38 37 36 35 35 35 35 34 34 33 33 34 35 36 36 36 36 35 35 36 37 38 39 40 40 40 40 40 40 40 41 41 42 42 42 42 43 43 43 43 43 43 42 42 42 42 42 42 42 41 40 39 38 37 36 35 34 33 33 34 36 39 42 45 48 49 50 49
43 41 40 39 38 38 38 38 38 38 38 38 39 39 40 39 39 40 40 39 37 35 35 34 34 34 33 33 33 33 34 35 35 34 34 34 34 34 36 37 38 38 38 38 38 37 38 38 39 40 40 40 39 39 39 39 39 39 39 39 39 39 40 40 41 41 41 40 39 39 38 36 35 34 32 31 32 35 38 40 43 46 48 49 49 48
42 42 41 40 39 37 36 35 36 37 38 38 39 39 38 38 40 41 42 41 39 36 35 35 35 34 33 33 33 34 34 34 34 34 34 33 34 34 35 36 37 37 36 36 36 36 37 37 38 38 38 37 37 37 36 36 36 36 36 37 37 38 39 39 39 39 39 39 38 37 36 35 34 32 31 30 32 35 39 41 44 47 48 49 49 48
40 40 40 39 38 37 36 34 34 34 36 37 37 37 36 36 37 38 39 39 38 36 35 35 36 36 35 35 34 34 34 34 34 34 34 34 34 34 35 35 36 36 35 36 36 36 36 37 37 36 36 36 35 35 35 35 35 35 35 36 36 37 37 37 37 37 37 36 36 35 34 33 32 30 29 30 33 36 39 41 44 47 48 48 48 47
39 39 39 39 39 38 37 36 35 35 36 37 38 37 36 34 33 33 33 34 34 34 35 35 36 37 37 36 36 35 35 34 34 35 35 35 35 34 34 35 35 35 35 35 35 35 35 36 35 35 35 34 34 34 34 34 34 34 34 34 35 35 34 34 34 34 34 34 33 33 32 31 29 29 29 31 33 36 38 41 44 46 46 46 46 45
42 41 42 42 42 41 40 39 38 39 39 40 40 41 41 39 36 33 31 31 31 32 33 34 36 37 37 37 36 35 34 34 34 35 35 35 35 34 34 34 34 34 34 34 34 34 35 35 35 35 34 34 34 34 34 33 33 33 33 33 33 32 32 32 31 31 31 31 31 30 29 29 28 28 29 31 34 35 37 40 42 44 44 43 43 43
46 45 45 45 44 44 43 42 42 42 43 43 44 45 45 44 43 40 37 34 32 31 32 33 34 35 35 35 35 35 34 34 35 35 35 35 34 33 33 33 33 33 33 33 33 34 34 35 35 35 34 34 34 33 33 32 32 32 31 31 31 30 30 29 29 29 29 29 29 28 28 28 28 29 30 32 33 34 35 38 41 42 42 42 41 41
49 48 47 47 46 46 45 45 45 45 45 45 46 47 47 47 47 45 44 41 38 35 34 33 34 34 35 35 36 36 35 35 36 36 36 35 33 32 32 32 32 32 32 32 33 33 34 34 34 34 34 34 33 33 32 32 31 31 30 30 29 29 28 28 27 27 27 27 28 28 28 28 28 29 30 31 31 31 33 36 39 41 42 42 41 40
50 50 49 48 47 46 46 46 45 45 45 45 45 46 47 47 47 47 47 45 42 40 37 36 35 36 36 37 37 38 37 37 37 37 36 35 33 32 31 31 32 32 32 32 32 32 33 33 34 34 34 33 33 32 32 32 31 31 30 29 29 28 27 27 26 26 26 27 27 27 28 29 29 30 30 30 30 30 31 34 38 41 43 44 42 40
51 50 50 49 48 47 46 45 44 43 43 43 43 43 44 45 45 46 46 45 44 42 40 38 37 37 38 38 39 39 38 38 38 37 36 35 34 33 32 32 32 32 32 32 32 32 32 33 33 33 33 33 33 32 32 32 31 31 30 29 28 28 27 26 26 26 26 26 26 27 28 29 30 30 30 30 29 29 30 33 38 42 44 44 42 39
52 51 51 50 49 48 47 45 43 42 41 41 41 41 41 42 43 44 44 44 44 43 42 40 39 39 39 40 40 40 39 39 38 37 37 36 35 34 33 33 33 33 32 32 32 32 32 32 33 33 33 33 33 33 32 32 32 31 30 30 29 28 27 26 26 26 26 26 26 27 28 29 30 31 30 30 29 29 31 34 37 40 42 41 40 38
52 52 51 50 49 48 47 45 44 42 41 40 40 40 40 40 41 41 42 43 43 44 43 42 41 40 40 41 41 41 41 40 39 38 38 38 37 35 34 34 34 34 33 33 32 32 33 33 33 33 34 34 34 33 33 33 32 32 31 30 29 28 28 27 26 26 25 25 26 26 27 28 29 30 30 29 28 29 31 34 37 38 39 39 38 36
51 51 51 51 50 49 48 47 46 44 43 42 41 41 40 41 41 41 41 42 42 43 44 43 42 42 42 42 42 42 42 41 40 40 40 39 38 37 36 35 35 35 35 34 34 34 34 34 34 34 34 35 35 34 34 34 33 33 32 31 30 29 28 27 27 26 25 25 25 26 26 27 28 28 28 27 27 28 31 34 36 37 38 38 37 35
52 51 51 51 51 50 50 49 48 47 45 44 43 42 41 41 41 42 41 42 42 43 43 44 44 44 43 43 43 43 43 42 42 42 41 41 40 39 38 37 37 37 37 36 35 35 35 35 35 35 35 36 36 35 35 34 34 33 33 32 31 30 29 28 27 26 26 25 25 25 26 26 27 27 27 26 25 27 30 33 35 37 37 37 36 34
56 55 53 52 51 51 51 51 50 49 48 46 45 43 42 42 42 42 42 42 42 42 43 44 45 46 46 45 45 44 44 44 43 43 43 42 42 41 40 39 39 39 38 38 37 37 37 36 36 36 36 36 36 36 36 35 35 34 34 33 32 31 30 29 28 27 26 26 25 25 25 26 26 26 26 25 24 25 28 32 34 36 37 36 34 33
61 60 59 57 55 54 53 52 52 51 50 49 47 45 43 42 41 41 41 42 42 42 43 44 45 46 47 47 47 46 45 45 45 44 44 43 43 43 42 41 40 40 40 39 39 38 38 38 38 37 37 37 37 37 36 36 35 35 34 33 33 32 30 29 28 28 27 26 26 25 25 25 25 25 25 24 24 25 27 30 33 36 36 35 34 32
62 62 62 61 60 59 57 56 55 54 53 51 50 48 46 44 42 42 41 40 40 40 41 42 44 45 46 48 48 48 47 47 46 45 44 44 44 44 43 42 41 41 41 40 40 40 40 39 39 38 38 38 37 37 37 36 36 35 35 34 33 32 31 30 29 29 28 27 26 26 25 24 24 24 24 24 24 25 27 30 33 35 36 34 33 33
61 61 61 61 61 61 61 60 60 58 57 55 54 52 50 48 46 45 43 41 40 40 40 40 41 43 44 46 47 48 49 48 47 46 45 44 44 44 43 42 42 42 41 40 40 40 41 40 39 39 38 38 38 37 37 37 36 36 35 34 33 32 32 31 30 30 29 28 27 26 25 24 24 24 24 24 24 25 28 31 33 35 35 34 33 33
59 59 60 60 61 61 61 61 62 62 62 61 59 57 55 53 51 50 48 45 43 42 41 40 40 41 42 43 44 46 48 48 47 46 45 44 44 44 43 42 42 42 41 40 40 40 41 40 40 39 39 38 38 37 37 37 36 36 35 35 34 33 32 31 31 30 30 29 28 27 26 25 24 24 24 24 25 26 29 31 34 35 35 34 33 33
57 58 59 59 60 60 60 61 61 62 63 64 64 63 62 60 58 56 54 52 50 48 46 44 43 42 42 42 43 45 47 47 47 46 45 44 44 44 43 42 42 42 41 41 41 40 40 40 39 39 38 38 37 37 37 37 37 36 36 35 34 33 32 32 31 31 30 30 29 28 26 25 24 24 25 25 27 28 30 32 34 34 34 33 33 32
54 55 56 57 58 59 60 60 61 61 62 63 64 65 65 64 63 62 60 58 57 55 54 51 49 47 45 44 44 45 46 46 46 46 45 45 45 44 43 43 43 42 42 42 41 41 41 40 39 38 38 37 37 37 37 37 37 36 36 35 34 33 32 32 31 31 30 30 29 28 27 26 25 25 25 27 28 30 31 32 33 34 34 34 33 32
49 50 52 53 55 56 58 59 60 61 61 62 63 63 64 65 65 65 65 64 62 61 60 58 56 53 51 49 48 47 46 45 46 46 46 46 46 45 44 44 44 44 43 43 42 42 41 40 39 38 37 37 37 37 36 36 36 36 36 35 34 33 33 32 31 31 30 30 29 29 28 27 26 26 26 28 30 32 32 33 34 34 35 34 33 32
42 43 45 47 49 51 54 56 57 59 60 61 62 63 63 63 64 65 65 66 65 65 64 63 61 59 57 55 52 50 49 47 46 46 46 47 47 46 45 45 45 45 44 44 43 43 42 41 40 38 37 37 37 37 36 36 36 35 35 35 34 33 33 32 31 30 30 30 29 29 29 29 29 28 29 30 32 34 35 35 35 35 35 35 34 33
35 36 38 40 42 44 47 50 52 55 57 59 61 62 62 63 63 63 64 64 65 65 65 65 64 63 61 59 57 55 53 51 49 48 48 48 48 47 47 46 46 45 45 45 45 44 43 42 40 39 38 37 37 36 36 36 35 35 34 34 34 33 33 32 31 30 30 29 30 30 30 31 31 31 31 31 33 35 36 36 36 36 36 35 35 34
29 30 31 33 34 37 39 42 45 48 51 54 56 58 60 61 62 63 63 63 64 64 64 65 65 65 64 63 61 59 57 55 53 52 51 50 50 49 49 48 47 46 45 45 45 44 44 43 41 40 39 37 37 36 36 35 35 35 34 34 33 33 33 33 32 31 30 30 30 30 30 31 32 32 32 32 33 35 36 37 37 37 37 37 36 35
23 25 26 27 28 30 32 34 37 40 43 46 49 53 55 58 60 61 62 63 63 63 63 64 64 64 64 64 63 62 61 59 58 56 55 54 52 51 51 49 48 47 46 46 45 45 44 43 42 41 39 38 37 36 35 35 35 35 35 34 34 34 33 33 32 32 32 31 31 31 31 32 32 33 33 33 33 34 36 37 38 38 38 38 37 36
20 20 21 22 23 25 26 28 30 33 35 38 42 45 48 52 54 57 59 60 61 62 62 63 63 63 63 62 62 62 61 61 60 59 58 57 55 54 53 51 50 48 46 46 45 45 44 44 43 42 40 39 37 36 35 35 35 36 35 35 35 35 35 34 34 34 34 33 33 33 33 33 34 34 34 34 34 34 35 36 37 38 39 39 38 37
18 18 18 18 19 20 22 23 25 27 29 31 34 37 40 43 47 50 53 56 58 60 61 62 62 63 63 62 61 61 60 60 60 60 59 58 57 56 55 54 52 50 48 46 45 45 44 44 44 43 42 40 38 36 35 35 36 37 37 37 37 37 36 36 36 36 36 36 36 36 36 36 36 36 36 35 34 34 34 35 36 37 37 38 37 37
18 17 17 16 16 17 18 20 21 22 24 26 28 30 33 36 39 43 46 50 53 55 58 59 61 62 62 62 61 61 60 60 59 59 59 59 58 57 57 56 54 52 49 47 46 45 44 44 44 43 42 41 39 37 36 35 36 37 38 38 38 38 38 38 38 38 38 39 38 38 38 39 39 39 38 36 35 33 33 34 36 37 37 37 37 36
18 17 17 16 16 16 16 17 17 18 20 22 24 26 28 31 33 36 39 43 46 49 52 54 57 58 60 61 62 61 61 60 60 59 59 58 58 57 57 56 56 54 51 49 47 46 45 44 44 44 43 42 41 39 37 35 36 37 39 39 39 39 38 39 39 40 40 41 41 41 41 41 42 42 41 39 37 35 35 36 37 38 38 38 38 37
19 19 18 17 17 17 17 16 17 17 17 18 20 22 24 26 29 31 34 37 40 43 46 49 51 54 56 58 60 61 61 61 61 60 59 58 57 57 56 56 56 55 53 51 49 47 46 45 45 44 44 43 42 40 38 36 35 36 38 40 41 40 40 40 41 41 41 42 43 43 44 44 44 44 43 42 40 39 39 39 39 39 39 39 39 38
21 21 20 20 19 19 18 18 17 17 17 16 17 18 20 22 25 27 30 33 36 38 41 43 46 49 52 54 57 59 61 62 62 61 60 59 58 57 56 56 56 55 54 52 50 48 46 45 45 45 44 43 43 42 40 37 36 36 37 40 41 42 42 42 41 41 42 43 44 45 45 46 46 46 46 45 44 44 43 43 42 42 41 41 40 40
22 22 22 22 22 21 21 20 20 19 18 18 17 17 17 19 21 23 27 29 32 34 36 39 41 44 47 50 54 56 59 61 62 61 60 59 58 57 56 56 55 55 55 53 51 49 47 46 45 45 44 44 44 43 42 39 37 36 37 39 41 43 43 42 41 41 42 43 44 45 46 47 47 48 48 48 47 47 46 46 45 44 43 42 42 41
23 23 23 23 23 23 23 23 22 21 21 20 19 18 17 17 18 20 23 26 29 31 34 36 38 41 44 47 50 52 55 58 59 60 60 59 58 58 57 56 55 55 55 54 52 50 48 47 46 45 44 45 45 45 44 42 39 38 38 39 41 42 44 44 43 42 42 42 43 45 46 47 48 49 50 49 49 48 48 48 48 47 46 45 44 42
23 23 24 24 24 25 25 25 24 24 23 22 21 20 19 18 17 18 20 22 25 28 31 34 36 39 42 44 46 47 50 53 55 56 57 58 58 57 57 56 56 55 55 54 53 52 50 49 47 46 46 46 46 46 46 44 42 40 40 40 41 43 44 45 45 44 43 43 43 45 47 48 49 50 49 48 48 49 49 49 49 49 48 47 46 44
24 25 25 25 26 26 26 26 26 26 25 25 24 22 21 20 19 18 19 20 22 25 28 31 34 36 39 41 43 44 46 48 50 52 54 55 56 56 56 56 56 55 55 55 54 53 52 51 50 49 48 48 48 48 48 47 45 43 42 41 42 43 45 45 45 45 44 44 44 45 46 48 49 49 48 48 48 49 50 50 51 51 51 50 48 47
26 27 27 28 28 28 28 28 27 27 27 27 26 25 23 22 21 20 20 20 20 22 25 29 32 34 37 39 40 42 44 46 47 49 50 52 53 54 54 54 55 55 55 55 55 55 54 53 52 51 50 50 50 50 50 49 48 46 44 43 43 44 45 46 46 45 45 44 44 45 46 47 48 48 48 48 48 49 49 50 51 52 52 51 50 48
28 29 29 30 30 30 30 30 30 29 29 29 28 27 26 25 23 22 22 21 20 21 24 27 30 33 35 37 39 40 42 44 45 46 47 49 50 50 51 52 53 53 53 54 54 55 55 55 55 54 53 52 51 52 52 52 51 48 46 45 45 45 46 46 46 45 45 44 44 44 45 46 47 48 48 49 49 49 49 51 52 53 53 53 52 50
29 29 30 31 32 32 32 32 32 31 31 31 30 30 29 27 26 25 24 23 22 22 23 26 28 31 33 35 37 39 40 42 43 44 45 46 47 47 48 49 51 51 52 52 53 54 54 55 56 56 55 54 53 53 54 54 53 51 48 46 46 46 46 47 46 46 45 44 44 44 44 45 47 48 49 50 50 51 52 53 54 55 54 54 53 51
Wind_Direction
264 264 265 266 267 268 268 267 266 264 263 263 262 261 260 260 260 259 257 255 253 253 253 254 254 253 252 251 251 252 253 255 256 256 254 251 249 248 250 253 255 257 259 261 262 264 264 265 266 267 268 269 270 272 274 275 274 273 271 272 272 272 271 270 271 274 278 280 282 282 282 283 284 286 287 288 289 291 292 290 287 284 284 285 286 284
263 263 265 266 268 269 269 268 265 263 262 261 261 261 261 262 263 264 264 262 261 259 259 259 259 259 258 256 256 256 257 258 259 259 257 253 251 250 252 254 256 257 258 260 261 263 265 266 267 268 269 270 271 273 274 274 274 272 271 271 271 270 268 268 270 274 278 280 281 281 281 281 283 284 285 286 286 288 289 287 284 282 282 284 284 281
264 265 266 267 268 269 269 268 266 264 262 261 261 261 262 263 264 265 266 267 267 267 267 267 266 265 263 262 261 261 261 261 260 259 257 254 252 252 253 255 255 256 256 258 260 262 264 265 267 268 270 271 272 273 274 273 272 271 270 270 269 268 268 268 271 275 278 280 281 281 280 280 281 282 283 283 283 284 285 284 282 280 281 282 281 279
265 265 266 267 268 269 269 268 267 265 263 261 261 262 262 264 265 267 268 269 270 271 271 272 271 270 269 267 266 265 265 264 261 258 256 253 252 252 253 253 254 254 255 256 257 259 261 263 265 267 268 270 271 272 273 272 271 269 269 269 269 268 268 269 272 275 277 279 280 280 280 279 280 281 280 280 280 281 282 281 279 278 279 280 280 277
263 263 264 266 267 268 268 268 267 265 264 263 263 263 263 265 266 268 269 270 271 272 272 272 272 271 270 269 268 267 267 265 263 259 255 252 251 251 251 251 252 252 253 254 255 257 258 260 261 263 265 267 269 270 271 271 269 267 267 267 268 268 269 270 273 275 277 278 279 279 279 278 278 278 278 277 277 278 279 278 276 276 277 278 277 275
262 262 262 264 266 267 268 267 267 266 265 265 265 265 266 266 268 269 270 270 271 271 271 271 270 270 269 268 267 267 267 266 264 260 255 253 251 251 251 251 251 252 252 253 253 254 255 257 258 260 262 264 266 268 269 269 267 265 264 265 266 268 269 271 273 275 276 277 277 277 277 277 276 275 275 274 274 275 275 274 273 273 275 276 275 274
264 262 262 263 264 265 267 267 266 266 266 267 267 267 267 268 268 269 270 270 270 270 269 268 267 266 266 265 265 265 266 266 264 262 258 256 254 254 254 254 254 254 253 253 253 253 254 255 256 258 259 261 263 265 266 266 264 263 262 264 265 267 269 271 273 274 275 275 275 274 274 274 273 271 271 272 272 272 271 270 270 271 272 273 273 272
267 264 263 262 263 264 265 265 265 266 266 267 267 267 267 268 268 268 268 268 268 267 266 265 263 263 262 262 263 263 264 265 264 263 261 260 259 259 259 258 257 256 255 254 253 253 254 255 256 257 258 260 261 262 263 261 260 260 260 262 264 266 268 270 272 273 273 272 272 271 271 270 269 268 268 269 269 268 267 267 267 269 270 270 270 270
269 266 264 263 263 263 263 263 264 264 265 265 265 265 266 266 266 266 265 265 264 262 261 261 260 260 260 260 261 262 263 264 264 264 264 264 263 263 262 260 258 257 255 254 253 254 254 255 256 257 258 259 260 260 259 257 256 257 258 260 263 265 268 269 270 270 270 269 268 268 268 267 266 265 266 265 265 264 263 264 265 267 268 268 268 268
268 267 266 264 263 262 261 261 261 261 262 263 263 263 263 263 262 262 261 260 259 258 258 257 257 257 258 258 259 261 262 263 264 265 265 265 264 263 261 259 257 255 254 253 253 253 254 255 255 256 257 257 257 257 255 255 255 256 258 260 263 265 267 267 267 267 266 265 265 264 264 264 263 263 263 262 261 259 259 261 264 266 267 267 267 267
264 265 266 265 264 262 260 260 259 259 259 259 259 259 259 258 258 258 257 257 256 256 256 255 255 255 255 256 257 258 260 261 262 262 262 261 260 258 257 255 253 252 252 252 252 252 253 253 254 254 254 255 254 254 254 254 255 257 259 261 263 264 264 264 264 263 263 262 262 262 262 261 261 260 259 258 256 256 256 259 262 264 265 265 265 265
257 260 262 263 263 262 261 260 259 258 257 256 256 255 255 255 255 255 255 256 256 256 256 255 255 254 254 254 255 255 256 257 257 257 256 255 254 253 252 251 251 251 251 251 250 251 251 251 251 252 252 253 253 254 255 256 257 258 260 260 261 261 261 261 261 261 261 261 261 260 260 259 258 257 255 253 252 252 254 257 260 262 263 263 264 264
253 254 255 257 259 260 260 260 260 259 257 256 256 256 256 255 255 255 255 256 257 257 258 257 256 254 253 252 252 252 252 252 252 251 250 250 249 249 249 249 249 249 249 249 249 249 249 249 250 250 251 252 253 254 255 256 257 258 258 258 258 258 258 258 259 259 260 260 260 259 258 257 255 253 250 247 247 249 253 256 258 260 260 261 262 262
252 252 252 252 253 255 257 258 259 258 258 257 258 259 260 259 258 257 257 257 256 257 258 258 257 254 251 250 249 249 249 249 248 247 246 246 246 246 246 247 247 247 247 247 247 247 247 248 249 250 251 252 253 254 255 255 255 255 255 255 255 256 257 257 258 259 259 259 259 257 256 254 252 248 245 242 243 247 251 254 256 258 258 259 260 261
249 249 249 249 248 249 250 252 254 254 254 255 255 256 257 257 257 258 258 258 257 256 257 257 256 254 250 248 247 247 247 247 247 246 245 244 243 243 243 244 244 244 245 245 245 246 246 247 248 249 250 251 252 253 253 253 253 253 253 254 254 255 256 257 257 258 258 258 257 255 254 251 248 243 239 237 240 245 249 252 254 256 256 257 259 259
244 244 244 245 244 244 244 244 246 247 249 249 249 248 248 249 252 254 256 257 256 255 255 255 255 254 251 248 247 247 248 248 248 247 246 245 243 242 241 241 241 242 242 243 244 244 245 246 247 248 248 249 250 251 251 252 252 252 252 253 254 254 255 255 256 256 256 255 254 253 250 247 242 238 234 235 238 243 247 250 252 254 255 256 257 257
240 240 240 240 240 240 240 240 241 242 243 245 245 244 243 243 245 248 250 252 253 253 253 253 253 254 253 251 249 249 250 251 251 251 249 248 245 242 240 240 240 240 241 242 243 244 244 245 245 246 247 248 249 249 250 250 250 251 251 252 252 253 253 254 254 254 253 253 251 249 245 241 236 233 232 234 238 242 246 248 250 252 253 254 254 255
239 239 239 239 239 239 239 239 239 239 240 241 242 243 243 243 244 245 247 248 249 250 251 251 252 252 253 253 252 252 252 252 253 253 252 251 248 244 241 241 241 241 242 243 243 244 244 245 245 246 246 247 247 247 248 248 249 249 250 251 251 252 252 252 252 252 251 249 247 243 239 235 231 230 231 234 237 241 244 247 249 250 250 251 252 253
241 241 241 241 241 241 241 242 242 241 241 242 242 243 244 245 246 247 248 248 248 249 249 250 250 250 251 251 252 252 252 253 253 254 254 252 249 246 243 242 242 243 244 244 245 245 245 245 245 245 245 245 245 245 245 246 247 248 248 249 250 250 251 251 250 249 248 245 242 238 234 230 229 230 232 234 237 240 243 245 246 247 247 249 250 251
244 244 244 244 244 245 245 246 246 246 246 246 247 247 247 248 248 249 250 250 249 249 248 247 248 248 249 250 250 251 251 251 253 254 254 252 249 246 244 244 245 245 246 246 246 246 245 245 245 245 244 244 243 243 244 245 246 246 247 248 248 249 249 249 248 247 246 243 239 234 230 228 229 231 233 234 235 238 240 242 240 240 241 246 248 248
244 245 245 246 246 246 247 248 250 250 251 251 252 252 253 252 251 251 250 250 250 249 248 247 246 247 248 249 249 249 249 249 251 252 252 251 249 246 245 245 246 247 247 246 246 246 246 245 245 244 243 242 242 243 244 245 245 245 245 246 247 247 247 247 246 245 244 242 238 233 229 228 229 231 233 234 234 236 238 237 234 233 236 242 245 246
243 243 244 245 246 246 247 248 249 250 251 252 253 254 255 255 255 254 252 250 249 247 246 245 245 246 247 248 248 248 248 248 249 250 250 249 248 246 245 246 247 247 247 246 246 245 245 245 244 243 242 242 242 243 244 245 245 245 244 245 245 246 246 245 244 243 242 242 239 236 232 229 229 230 231 232 233 234 236 236 234 233 236 239 242 243
241 242 242 243 244 244 244 244 244 244 245 246 248 249 251 253 254 254 254 252 249 246 244 243 243 244 244 245 246 247 247 248 248 248 249 248 247 246 245 246 247 247 246 246 245 245 245 244 244 243 242 242 243 244 245 246 245 244 244 244 244 245 244 244 243 242 242 241 241 239 236 233 230 229 229 229 230 232 235 236 237 238 239 240 241 243
241 241 241 241 241 241 241 239 238 237 237 237 239 241 243 246 248 250 251 251 250 248 246 243 241 241 241 242 244 245 246 247 247 248 248 247 246 246 245 246 246 246 246 245 245 245 245 244 243 243 242 243 244 246 247 247 246 244 243 243 243 244 244 243 242 242 242 242 242 240 238 235 232 229 226 226 227 230 234 237 240 241 241 241 242 243
240 241 240 240 239 239 238 236 234 232 231 230 231 233 235 238 240 243 245 247 248 248 247 244 241 239 239 240 241 243 244 246 247 247 247 247 247 246 245 245 246 246 245 245 244 244 244 244 243 243 243 244 245 246 247 247 246 245 243 243 243 243 243 243 243 242 242 243 243 241 239 235 231 227 223 221 223 228 233 237 240 241 241 242 242 243
242 242 241 240 239 238 236 234 232 230 228 227 227 227 229 231 234 236 238 240 242 244 244 243 242 240 238 238 238 240 242 244 245 246 247 247 247 246 245 245 245 246 246 245 244 244 244 244 243 243 243 244 246 247 248 248 247 245 243 242 242 243 243 243 243 243 243 243 243 241 238 233 227 222 218 216 219 225 232 236 239 240 241 241 242 241
247 246 244 243 241 239 236 234 231 229 227 226 225 225 225 226 228 229 230 233 235 237 239 240 241 240 239 238 237 238 239 240 242 244 245 245 246 245 245 245 245 245 246 245 245 244 244 243 242 242 243 244 246 247 248 248 247 245 243 242 242 242 242 243 243 243 243 242 242 240 236 230 223 217 213 211 214 221 229 234 238 239 240 240 239 238
252 251 250 248 246 244 241 237 234 231 229 227 226 225 224 224 224 224 224 226 228 230 232 234 236 238 238 238 237 237 237 238 239 241 243 243 244 244 244 244 245 245 245 245 245 244 243 242 242 242 242 243 245 246 247 247 246 245 243 242 242 242 242 242 242 242 241 241 240 238 234 228 220 213 208 208 211 219 226 232 236 238 239 238 236 233
254 254 253 252 251 249 247 244 241 237 234 231 229 228 227 226 225 224 223 222 223 224 226 228 231 233 235 237 237 237 237 237 237 239 240 241 243 243 244 244 244 245 245 245 244 243 242 241 241 241 241 242 243 244 245 245 245 244 242 241 241 241 241 241 241 240 240 239 238 236 233 226 218 211 207 207 210 217 225 232 235 237 237 235 232 230
256 255 255 254 253 252 251 249 247 244 241 238 236 234 232 231 230 229 227 225 224 224 224 225 226 228 231 233 235 235 235 235 236 237 238 239 240 242 243 243 244 244 244 244 244 243 242 241 240 240 240 241 242 242 243 243 243 242 241 240 240 240 240 239 239 239 238 237 236 234 231 224 217 212 209 209 213 219 226 232 235 236 236 234 231 228
256 256 256 255 254 253 252 251 250 248 247 245 243 241 238 237 236 235 234 232 231 230 229 228 228 228 229 231 232 233 233 233 233 234 234 235 237 238 240 240 241 242 243 242 242 242 241 240 239 239 239 239 240 240 240 241 241 240 240 239 239 239 239 238 238 237 237 235 234 232 228 222 215 211 212 214 218 222 228 232 235 236 235 233 231 228
256 256 255 255 254 254 253 252 251 250 249 249 248 247 245 243 241 240 239 238 238 237 237 235 234 233 232 232 233 233 233 232 231 231 231 231 232 233 234 235 236 238 239 239 239 240 240 239 238 237 237 237 238 238 238 239 239 239 238 238 238 238 238 238 237 236 235 234 232 230 226 220 214 211 213 218 222 226 230 233 235 236 235 234 232 231
259 257 256 255 255 254 254 253 252 251 250 250 250 250 249 248 247 245 243 242 242 241 241 241 240 239 238 237 236 236 234 233 231 230 229 229 230 230 229 230 231 232 233 234 236 236 237 237 236 235 235 235 235 236 236 237 237 237 237 237 237 238 238 237 236 235 234 232 230 227 224 219 213 211 214 220 225 228 231 234 236 236 236 234 234 234
263 261 259 258 256 255 254 253 253 252 252 251 251 251 251 251 251 250 248 247 246 245 244 244 244 243 242 242 241 240 238 236 234 233 231 231 230 229 227 226 227 228 228 230 231 233 234 234 233 233 233 233 233 234 234 235 236 236 237 237 238 238 238 238 236 235 233 230 228 226 222 218 214 213 216 223 227 231 233 235 237 237 236 235 235 235
269 267 264 262 260 258 256 255 254 253 252 252 252 252 252 252 252 252 252 251 250 249 248 247 246 246 245 244 243 243 242 240 239 237 236 235 234 232 229 227 225 225 226 226 227 229 230 231 231 230 230 231 232 232 233 234 235 236 237 237 238 238 239 238 237 235 232 230 227 225 223 219 216 215 217 222 227 231 234 236 237 237 235 235 235 236
274 272 270 268 265 262 260 258 256 254 253 253 252 252 252 252 252 252 253 253 252 252 251 250 249 248 247 246 245 245 244 243 242 242 241 240 239 238 235 231 228 226 225 225 225 226 226 227 227 227 227 228 229 231 232 232 233 234 236 237 238 239 239 239 238 236 233 230 228 226 224 222 219 217 217 219 223 228 232 235 236 236 235 235 235 237
279 276 275 273 270 267 264 262 259 257 255 254 253 252 252 252 252 252 252 252 253 253 252 252 251 250 249 248 247 246 245 244 244 244 243 243 243 242 241 237 233 230 228 226 225 224 224 224 224 223 224 225 226 228 230 231 232 233 234 236 237 238 238 238 237 235 233 231 230 229 227 225 223 221 219 219 222 225 229 232 234 234 234 234 235 237
284 281 279 277 275 272 269 266 264 261 258 256 254 253 252 251 251 251 251 252 252 252 252 252 252 251 251 250 249 248 247 246 246 245 244 244 244 244 243 241 239 235 232 230 228 226 224 222 221 221 220 221 223 226 229 230 231 232 233 234 235 236 236 236 235 233 231 231 230 230 229 228 227 225 224 222 222 224 226 228 230 231 232 234 235 236
294 289 286 282 279 275 273 270 267 264 261 259 256 255 253 252 251 251 251 251 251 251 251 252 252 252 251 251 250 249 249 248 247 247 246 245 244 244 244 243 242 239 236 234 231 229 226 223 221 219 218 218 220 223 226 229 231 231 231 231 232 232 233 233 232 231 230 229 229 228 228 229 229 229 227 226 225 225 225 226 227 229 231 232 233 234
306 302 296 291 285 281 277 273 271 268 265 263 260 258 255 254 252 251 250 250 249 249 250 250 250 250 251 251 250 250 249 249 248 248 247 246 245 245 244 244 243 241 238 237 235 232 229 226 223 220 218 217 218 220 224 227 230 231 231 230 229 229 230 230 230 230 229 229 228 227 227 227 229 230 231 230 229 228 228 229 230 231 233 233 234 234
315 311 307 303 298 292 286 280 276 273 270 266 264 261 258 256 254 252 251 250 249 249 249 249 249 249 249 249 250 250 249 249 249 248 247 247 246 245 245 244 243 241 240 238 236 235 233 230 226 223 220 218 217 219 222 226 229 230 231 231 230 230 230 230 229 229 228 228 228 227 227 227 228 230 232 233 233 232 232 233 234 235 236 237 237 238
319 317 315 314 311 305 298 292 287 282 276 271 267 264 261 258 256 254 252 250 249 248 248 247 247 247 247 248 248 248 248 248 248 248 247 246 246 245 245 244 243 242 241 239 237 236 234 232 230 226 223 220 218 219 221 225 227 229 230 231 231 230 230 229 229 228 228 228 228 227 227 227 227 229 232 234 235 235 234 235 235 236 238 239 240 240
319 319 319 318 316 312 309 306 301 294 287 280 273 268 264 262 259 257 254 252 250 248 247 246 246 246 245 245 245 245 246 246 246 246 246 246 245 244 244 244 244 243 242 240 238 236 235 233 232 229 226 222 220 220 221 224 226 228 229 230 229 229 228 228 228 228 227 228 228 228 228 227 228 229 231 233 235 235 235 235 235 237 238 239 240 241
317 317 318 317 316 315 314 312 308 304 300 295 287 279 273 268 263 260 257 255 252 250 248 247 245 244 244 243 243 243 243 243 243 244 244 244 244 244 243 243 243 243 242 242 240 238 236 234 233 231 229 226 223 221 221 223 225 226 227 228 229 229 229 229 228 227 227 227 227 228 228 228 229 229 231 232 234 234 235 235 235 236 237 239 240 240
314 314 315 315 315 315 314 312 310 309 307 304 298 291 284 277 270 265 261 259 256 253 251 248 246 244 243 242 241 241 241 241 241 242 242 242 243 242 242 242 242 242 242 242 241 240 238 236 234 232 230 228 225 223 223 223 224 225 226 227 228 229 230 230 229 228 227 227 227 227 228 229 229 230 231 232 233 234 234 234 235 236 237 238 238 239
311 312 313 313 313 313 312 311 310 309 308 305 302 299 295 288 279 272 267 263 260 257 254 252 249 246 244 242 241 240 240 240 240 240 240 240 241 241 241 241 241 241 241 241 240 240 239 237 235 233 231 229 227 225 223 223 224 224 224 225 226 227 228 228 228 227 227 227 227 227 228 229 230 231 232 233 234 234 234 235 235 236 237 237 238 239
310 311 311 312 311 311 310 310 309 308 306 304 302 301 299 294 287 280 273 267 264 261 259 257 254 251 248 245 242 241 240 239 238 238 237 237 237 238 239 239 239 240 240 240 240 239 238 237 235 234 232 231 229 226 224 223 224 224 224 224 224 225 226 227 227 227 226 226 226 227 227 228 230 231 232 234 234 235 235 235 235 236 237 237 238 238
310 311 311 311 311 310 309 309 308 307 305 303 302 300 297 294 290 285 279 273 268 264 262 260 258 256 253 250 247 243 241 239 238 236 235 234 234 234 235 236 237 237 238 238 238 238 238 237 235 234 232 231 229 227 225 224 224 224 225 224 223 224 226 227 227 227 226 226 225 226 226 228 229 230 232 233 234 235 235 235 235 236 236 236 237 237
309 310 310 310 310 309 309 308 307 306 304 303 301 299 296 293 289 286 282 277 272 268 264 261 260 258 257 254 251 248 244 241 239 237 235 233 231 231 231 232 233 234 236 236 237 237 237 236 235 234 232 230 229 227 225 224 224 225 225 224 224 224 224 225 227 227 227 227 226 225 225 227 228 230 232 233 233 234 235 236 236 236 236 236 236 236
308 308 308 308 308 308 308 307 306 305 304 302 300 299 296 293 289 286 282 279 275 270 265 262 260 259 258 257 255 252 249 245 242 239 237 234 231 229 229 229 230 231 232 233 235 236 236 236 236 234 232 230 229 227 225 224 224 225 226 225 224 223 223 224 225 227 227 228 227 226 225 226 227 229 231 233 234 235 235 236 236 236 236 236 235 235
305 306 306 306 306 306 306 305 305 304 302 301 300 298 296 293 290 286 282 279 275 271 266 263 260 259 258 256 255 254 252 250 246 243 240 237 233 230 228 228 227 227 228 229 231 233 234 235 236 235 233 230 228 227 226 224 224 225 227 226 225 223 223 223 224 225 227 228 228 227 226 225 226 227 228 230 232 234 235 236 236 237 236 235 235 234
Height
3030 3031 3032 3032 3032 3031 3031 3032 3033 3034 3034 3035 3036 3037 3039 3040 3041 3043 3044 3046 3047 3049 3050 3051 3053 3054 3055 3056 3056 3058 3059 3060 3061 3062 3062 3063 3064 3065 3066 3066 3067 3068 3068 3069 3070 3070 3071 3072 3073 3074 3075 3076 3077 3077 3078 3079 3079 3080 3081 3081 3082 3082 3083 3083 3083 3084 3084 3085 3085 3086 3086 3086 3086 3086 3086 3086 3086 3086 3086 3087 3087 3087 3087 3087 3087 3087
3026 3027 3028 3028 3027 3027 3027 3028 3029 3030 3030 3031 3032 3033 3035 3036 3037 3038 3039 3041 3042 3044 3046 3047 3048 3049 3050 3051 3052 3054 3055 3056 3056 3057 3057 3058 3059 3061 3062 3063 3064 3064 3065 3065 3066 3066 3067 3068 3069 3070 3071 3071 3072 3073 3074 3075 3076 3076 3077 3077 3078 3079 3080 3080 3080 3081 3081 3081 3082 3082 3083 3083 3083 3083 3084 3084 3084 3084 3084 3085 3085 3085 3085 3085 3085 3085
3023 3023 3023 3024 3023 3023 3023 3024 3025 3026 3027 3028 3029 3030 3031 3032 3033 3034 3035 3036 3037 3038 3040 3041 3042 3043 3044 3045 3047 3048 3050 3050 3051 3052 3052 3053 3055 3056 3058 3059 3060 3061 3061 3062 3062 3063 3063 3064 3065 3066 3066 3067 3068 3069 3070 3071 3072 3072 3073 3074 3075 3076 3076 3077 3077 3077 3078 3078 3079 3079 3080 3080 3080 3081 3081 3081 3081 3081 3082 3082 3083 3083 3083 3083 3083 3083
3020 3019 3019 3020 3020 3020 3020 3021 3022 3023 3024 3025 3026 3027 3028 3028 3029 3030 3031 3032 3033 3034 3034 3036 3036 3037 3038 3040 3041 3043 3044 3046 3046 3047 3048 3050 3051 3052 3054 3055 3056 3056 3057 3058 3059 3059 3060 3061 3061 3062 3063 3063 3064 3065 3066 3067 3068 3069 3070 3070 3071 3072 3073 3073 3074 3074 3075 3075 3075 3076 3076 3077 3077 3078 3078 3079 3079 3079 3079 3080 3080 3081 3081 3081 3081 3081
3016 3016 3016 3017 3017 3016 3017 3018 3019 3020 3021 3022 3022 3023 3024 3025 3026 3026 3027 3028 3029 3030 3030 3031 3032 3033 3034 3035 3036 3038 3040 3041 3042 3044 3045 3046 3047 3048 3049 3050 3051 3052 3053 3054 3055 3056 3056 3057 3058 3059 3059 3060 3061 3061 3062 3063 3064 3065 3066 3067 3068 3068 3069 3070 3070 3071 3071 3072 3072 3073 3073 3074 3074 3075 3075 3076 3076 3076 3076 3077 3078 3078 3078 3078 3078 3078
3011 3012 3013 3014 3013 3013 3014 3015 3016 3016 3017 3018 3019 3020 3021 3021 3022 3023 3024 3024 3025 3026 3026 3027 3029 3030 3031 3031 3033 3034 3036 3037 3038 3040 3041 3042 3043 3044 3045 3046 3047 3048 3049 3050 3051 3051 3052 3053 3054 3055 3056 3056 3057 3058 3059 3060 3061 3061 3062 3063 3064 3065 3065 3066 3067 3067 3068 3068 3069 3070 3070 3071 3071 3072 3072 3073 3073 3074 3074 3075 3076 3076 3076 3076 3076 3076
3008 3009 3009 3010 3010 3010 3011 3011 3012 3013 3014 3015 3016 3017 3017 3018 3019 3019 3020 3020 3021 3022 3023 3024 3025 3026 3027 3028 3029 3030 3031 3033 3034 3035 3037 3038 3039 3039 3040 3041 3042 3043 3044 3045 3046 3047 3048 3049 3050 3051 3052 3052 3053 3054 3055 3056 3057 3058 3059 3060 3061 3061 3061 3062 3063 3064 3064 3065 3066 3066 3067 3068 3069 3069 3070 3070 3071 3071 3071 3072 3073 3073 3073 3073 3073 3074
3005 3005 3006 3006 3006 3007 3007 3008 3008 3009 3010 3011 3012 3013 3014 3014 3015 3015 3016 3017 3017 3018 3019 3020 3021 3021 3022 3024 3025 3026 3027 3028 3030 3031 3032 3033 3034 3035 3036 3037 3038 3039 3040 3041 3042 3043 3044 3045 3046 3046 3047 3048 3049 3050 3051 3053 3054 3055 3056 3056 3057 3057 3058 3059 3060 3060 3061 3061 3062 3063 3064 3065 3066 3066 3067 3067 3068 3068 3069 3070 3070 3071 3071 3071 3071 3071
3001 3001 3002 3002 3003 3004 3004 3004 3005 3006 3007 3008 3009 3009 3010 3011 3011 3012 3012 3013 3013 3014 3015 3016 3016 3017 3018 3020 3021 3022 3023 3024 3025 3026 3027 3028 3029 3030 3031 3032 3033 3034 3035 3036 3037 3038 3039 3040 3041 3042 3043 3044 3045 3046 3048 3049 3050 3051 3052 3053 3053 3054 3055 3056 3056 3057 3057 3058 3059 3059 3061 3061 3063 3064 3065 3065 3065 3065 3066 3067 3067 3068 3068 3068 3069 3069
2999 2999 2999 2999 3000 3001 3001 3001 3002 3003 3004 3005 3005 3006 3006 3006 3007 3008 3008 3008 3009 3010 3011 3011 3012 3013 3014 3016 3017 3018 3019 3020 3021 3021 3022 3023 3024 3026 3027 3028 3028 3029 3031 3031 3032 3033 3035 3036 3037 3038 3039 3040 3041 3042 3044 3045 3046 3047 3048 3049 3050 3051 3051 3052 3052 3053 3054 3054 3055 3056 3057 3058 3059 3061 3061 3062 3062 3062 3063 3064 3065 3065 3065 3066 3066 3067
2996 2996 2996 2996 2996 2997 2998 2998 2999 3000 3001 3001 3002 3002 3002 3002 3003 3003 3004 3004 3005 3006 3007 3008 3008 3009 3011 3012 3013 3015 3016 3016 3017 3018 3019 3020 3021 3022 3023 3023 3024 3025 3026 3027 3028 3029 3030 3031 3033 3034 3035 3036 3037 3039 3040 3041 3042 3044 3045 3046 3046 3047 3048 3048 3049 3049 3050 3051 3051 3052 3053 3055 3056 3057 3058 3059 3059 3059 3060 3061 3062 3062 3062 3063 3064 3065
2994 2995 2995 2994 2994 2994 2994 2995 2995 2996 2997 2998 2998 2998 2998 2998 2999 3000 3000 3001 3002 3003 3004 3004 3005 3006 3007 3008 3010 3011 3012 3013 3014 3015 3016 3016 3017 3018 3019 3019 3020 3021 3022 3023 3024 3025 3026 3028 3029 3030 3031 3032 3034 3035 3036 3038 3039 3040 3041 3042 3043 3043 3044 3044 3045 3045 3046 3047 3047 3049 3050 3051 3052 3054 3055 3056 3056 3057 3057 3058 3059 3059 3060 3061 3061 3062
2990 2991 2992 2992 2992 2992 2992 2992 2993 2993 2994 2994 2994 2994 2994 2995 2996 2997 2997 2998 2999 3000 3001 3001 3001 3002 3003 3005 3006 3007 3009 3009 3010 3011 3012 3013 3014 3015 3015 3016 3017 3018 3019 3020 3021 3021 3023 3024 3025 3026 3028 3029 3031 3032 3033 3035 3036 3037 3038 3039 3039 3040 3040 3041 3041 3041 3042 3043 3044 3045 3046 3047 3049 3051 3052 3053 3054 3055 3054 3055 3056 3056 3057 3058 3059 3060
2986 2986 2987 2988 2989 2990 2990 2991 2991 2991 2991 2991 2992 2991 2991 2993 2994 2994 2994 2995 2996 2996 2997 2998 2998 2999 3000 3001 3003 3004 3005 3006 3007 3008 3008 3009 3010 3011 3012 3013 3014 3015 3016 3016 3017 3018 3020 3021 3022 3023 3025 3026 3027 3029 3030 3031 3033 3034 3034 3035 3035 3036 3036 3037 3037 3038 3038 3039 3040 3041 3042 3044 3046 3048 3049 3050 3051 3052 3051 3052 3053 3054 3055 3056 3057 3058
2983 2983 2984 2984 2985 2986 2987 2988 2988 2988 2989 2989 2990 2990 2991 2992 2992 2991 2991 2991 2992 2994 2995 2995 2995 2996 2997 2998 3000 3001 3002 3003 3003 3004 3005 3006 3007 3008 3010 3010 3011 3011 3012 3013 3014 3016 3017 3018 3019 3021 3022 3023 3025 3026 3027 3028 3029 3030 3031 3031 3032 3032 3033 3033 3034 3034 3035 3036 3036 3037 3039 3040 3042 3044 3046 3047 3049 3049 3049 3049 3050 3051 3052 3054 3055 3056
2980 2980 2981 2981 2981 2982 2983 2984 2985 2985 2985 2986 2986 2987 2988 2989 2990 2990 2990 2990 2990 2991 2992 2992 2992 2993 2994 2995 2996 2998 2999 3000 3000 3001 3002 3003 3004 3005 3006 3007 3008 3008 3010 3011 3012 3013 3015 3016 3016 3018 3019 3021 3022 3023 3024 3025 3026 3026 3027 3027 3028 3029 3030 3030 3031 3031 3032 3032 3033 3034 3035 3037 3039 3041 3042 3044 3046 3046 3046 3046 3048 3049 3050 3051 3052 3053
2976 2976 2976 2977 2977 2978 2978 2979 2980 2981 2982 2982 2982 2983 2983 2984 2985 2986 2987 2988 2988 2989 2989 2990 2990 2990 2990 2991 2993 2995 2996 2996 2997 2998 2999 2999 3000 3001 3003 3004 3004 3005 3006 3008 3009 3010 3011 3013 3014 3015 3016 3018 3019 3020 3021 3021 3022 3023 3024 3024 3025 3026 3026 3027 3028 3028 3029 3029 3030 3031 3032 3034 3036 3037 3039 3041 3042 3043 3043 3044 3045 3046 3048 3049 3051 3051
2971 2972 2972 2973 2973 2974 2975 2975 2975 2976 2976 2978 2979 2980 2980 2980 2980 2981 2982 2983 2984 2985 2986 2986 2986 2987 2987 2988 2989 2991 2993 2994 2994 2995 2996 2996 2997 2998 2999 3000 3001 3002 3003 3005 3006 3007 3009 3010 3011 3012 3014 3015 3016 3016 3017 3018 3019 3020 3021 3021 3022 3023 3023 3024 3025 3025 3026 3026 3027 3028 3030 3031 3033 3035 3036 3038 3039 3040 3040 3041 3042 3044 3045 3047 3048 3048
2967 2968 2968 2969 2969 2970 2971 2971 2971 2971 2971 2972 2972 2974 2976 2976 2977 2977 2978 2979 2980 2981 2982 2983 2983 2984 2985 2985 2986 2988 2990 2991 2991 2992 2992 2993 2994 2995 2996 2997 2998 2999 3000 3002 3003 3005 3006 3006 3008 3009 3010 3011 3012 3013 3014 3015 3016 3017 3018 3018 3019 3020 3021 3021 3022 3022 3023 3024 3025 3026 3027 3029 3030 3032 3033 3035 3036 3037 3038 3039 3040 3041 3041 3043 3044 3046
2963 2964 2964 2965 2966 2966 2967 2968 2968 2969 2969 2970 2970 2970 2971 2972 2974 2975 2975 2976 2976 2977 2978 2979 2980 2981 2982 2983 2984 2985 2987 2988 2988 2989 2989 2990 2991 2991 2993 2994 2995 2996 2997 2999 3000 3001 3002 3004 3005 3006 3007 3008 3009 3010 3011 3012 3013 3014 3015 3016 3016 3017 3018 3019 3019 3020 3021 3021 3022 3023 3024 3026 3027 3029 3031 3032 3034 3035 3036 3037 3039 3039 3039 3039 3041 3043
2959 2960 2960 2961 2961 2962 2963 2964 2965 2966 2966 2966 2967 2967 2968 2968 2969 2971 2972 2973 2973 2974 2975 2976 2976 2978 2979 2980 2981 2982 2983 2984 2985 2985 2986 2986 2987 2988 2990 2991 2992 2993 2994 2996 2997 2998 2999 3001 3002 3003 3004 3005 3006 3007 3008 3009 3010 3011 3012 3013 3014 3015 3015 3016 3016 3017 3018 3019 3020 3021 3022 3023 3025 3026 3028 3029 3031 3032 3033 3036 3038 3039 3037 3037 3039 3041
2954 2955 2955 2956 2957 2958 2959 2960 2961 2962 2962 2963 2963 2964 2964 2965 2965 2966 2967 2968 2970 2971 2972 2972 2973 2975 2976 2977 2977 2978 2979 2981 2981 2981 2982 2983 2984 2985 2987 2988 2989 2990 2991 2992 2994 2995 2996 2997 2999 3000 3001 3002 3003 3004 3005 3006 3007 3008 3009 3010 3011 3012 3012 3013 3014 3015 3015 3016 3017 3018 3019 3020 3022 3023 3025 3026 3028 3029 3031 3033 3036 3037 3036 3036 3038 3040
2949 2950 2951 2952 2953 2954 2955 2956 2957 2958 2958 2959 2959 2960 2961 2961 2962 2962 2963 2964 2965 2966 2967 2969 2970 2971 2972 2973 2974 2975 2976 2976 2977 2978 2979 2980 2981 2982 2984 2985 2986 2986 2988 2989 2991 2992 2993 2994 2995 2996 2997 2999 3000 3001 3001 3002 3004 3005 3006 3007 3008 3009 3010 3011 3011 3012 3013 3014 3014 3015 3016 3017 3019 3020 3022 3024 3025 3027 3029 3031 3033 3033 3034 3036 3037 3038
2945 2946 2946 2948 2949 2949 2950 2951 2952 2953 2953 2954 2954 2955 2956 2957 2958 2959 2960 2961 2961 2962 2963 2964 2966 2967 2968 2969 2970 2971 2972 2973 2974 2975 2976 2976 2977 2979 2981 2982 2983 2983 2985 2986 2987 2989 2990 2991 2992 2993 2994 2995 2996 2997 2998 2999 3000 3001 3003 3004 3005 3006 3007 3008 3009 3010 3010 3011 3012 3013 3013 3014 3016 3017 3019 3021 3022 3024 3026 3028 3029 3030 3032 3034 3035 3036
2941 2942 2943 2943 2944 2945 2945 2946 2947 2948 2949 2949 2950 2950 2951 2952 2953 2954 2955 2956 2958 2959 2959 2961 2961 2963 2964 2965 2966 2967 2968 2969 2971 2971 2972 2973 2974 2976 2977 2979 2980 2980 2981 2983 2984 2986 2986 2987 2989 2990 2991 2992 2992 2994 2995 2996 2997 2998 3000 3001 3002 3003 3004 3005 3006 3007 3008 3009 3009 3010 3011 3012 3013 3014 3016 3018 3020 3022 3024 3026 3027 3028 3030 3031 3033 3034
2937 2938 2938 2939 2940 2940 2941 2942 2942 2943 2944 2944 2945 2946 2946 2947 2948 2949 2950 2952 2953 2955 2956 2956 2957 2958 2960 2961 2962 2963 2964 2966 2967 2968 2969 2970 2971 2972 2974 2975 2976 2977 2978 2980 2981 2982 2983 2984 2985 2986 2987 2988 2989 2990 2991 2992 2994 2995 2996 2998 2999 3000 3001 3002 3003 3004 3005 3006 3007 3008 3009 3010 3011 3012 3013 3015 3017 3020 3022 3024 3025 3026 3027 3029 3030 3032
2933 2934 2934 2935 2936 2936 2937 2937 2938 2939 2939 2940 2941 2941 2942 2942 2943 2944 2945 2946 2948 2950 2951 2952 2953 2954 2956 2957 2958 2959 2961 2962 2963 2964 2966 2966 2967 2968 2970 2972 2973 2974 2975 2976 2977 2979 2980 2981 2982 2983 2984 2985 2986 2987 2988 2989 2990 2991 2993 2995 2996 2997 2998 2999 3000 3001 3002 3004 3005 3006 3006 3007 3008 3009 3011 3013 3015 3017 3020 3021 3023 3024 3025 3026 3028 3030
2928 2929 2930 2931 2931 2932 2932 2933 2934 2934 2935 2935 2936 2936 2937 2938 2939 2940 2941 2942 2943 2944 2946 2946 2948 2949 2951 2952 2954 2955 2957 2958 2960 2961 2962 2963 2964 2965 2966 2968 2970 2970 2971 2973 2974 2975 2976 2977 2978 2980 2981 2981 2982 2983 2984 2986 2987 2988 2990 2991 2993 2994 2995 2996 2997 2999 3000 3001 3002 3003 3004 3005 3006 3007 3009 3011 3013 3015 3017 3019 3020 3021 3023 3024 3026 3027
2923 2924 2925 2926 2927 2928 2928 2929 2929 2930 2931 2931 2931 2932 2933 2934 2935 2935 2936 2938 2939 2940 2940 2941 2942 2944 2946 2947 2949 2951 2952 2954 2956 2957 2959 2960 2960 2961 2963 2965 2966 2967 2968 2969 2971 2971 2973 2974 2975 2976 2977 2978 2979 2980 2981 2982 2984 2985 2986 2988 2989 2991 2992 2993 2994 2996 2997 2998 2999 3000 3001 3002 3003 3004 3006 3008 3010 3012 3014 3016 3017 3019 3020 3022 3023 3025
2917 2918 2919 2921 2921 2923 2924 2925 2925 2926 2926 2926 2927 2927 2928 2929 2930 2931 2932 2934 2936 2936 2936 2936 2937 2939 2941 2942 2944 2945 2947 2949 2951 2954 2956 2956 2956 2957 2959 2961 2962 2963 2965 2966 2967 2968 2969 2970 2971 2973 2974 2975 2976 2977 2978 2979 2980 2982 2983 2985 2986 2987 2989 2990 2991 2993 2994 2995 2996 2997 2998 2999 3001 3002 3003 3005 3007 3009 3011 3013 3014 3016 3017 3019 3021 3022
2912 2913 2914 2914 2916 2917 2918 2919 2920 2921 2922 2922 2922 2923 2924 2925 2926 2927 2928 2930 2931 2931 2931 2932 2934 2935 2936 2938 2939 2940 2941 2944 2947 2950 2951 2952 2952 2953 2956 2957 2958 2960 2961 2963 2964 2964 2965 2966 2968 2970 2971 2971 2973 2974 2975 2976 2977 2978 2980 2981 2983 2984 2986 2987 2988 2990 2991 2992 2994 2995 2996 2997 2998 3000 3001 3002 3004 3006 3008 3010 3011 3013 3015 3017 3018 3020
2907 2907 2908 2909 2910 2911 2912 2913 2915 2916 2917 2918 2918 2918 2919 2920 2921 2922 2923 2925 2926 2927 2928 2929 2930 2931 2932 2933 2934 2935 2936 2940 2943 2945 2946 2947 2947 2949 2951 2953 2954 2956 2957 2959 2960 2961 2961 2963 2965 2966 2967 2968 2969 2970 2971 2972 2974 2975 2976 2978 2980 2981 2982 2984 2985 2987 2988 2990 2991 2992 2993 2995 2996 2998 2999 3001 3002 3004 3006 3007 3009 3011 3012 3014 3016 3018
2901 2902 2903 2904 2905 2906 2907 2908 2909 2910 2911 2912 2913 2914 2914 2915 2916 2916 2918 2919 2921 2922 2923 2925 2926 2927 2928 2929 2930 2931 2933 2936 2938 2940 2941 2942 2942 2944 2946 2948 2950 2951 2953 2955 2956 2957 2957 2959 2961 2962 2964 2965 2966 2966 2968 2969 2970 2971 2973 2974 2976 2978 2979 2981 2982 2984 2985 2986 2988 2990 2991 2992 2994 2995 2997 2999 3000 3001 3003 3005 3006 3008 3010 3012 3014 3016
2896 2897 2898 2899 2900 2901 2901 2902 2904 2905 2906 2907 2908 2909 2910 2911 2911 2912 2912 2914 2915 2916 2918 2919 2921 2923 2924 2926 2926 2928 2930 2932 2934 2936 2937 2938 2938 2939 2941 2943 2945 2947 2949 2950 2951 2953 2954 2955 2957 2959 2960 2961 2962 2963 2964 2965 2966 2968 2969 2971 2972 2974 2976 2977 2979 2980 2982 2983 2985 2987 2988 2990 2991 2993 2995 2996 2997 2999 3001 3002 3004 3006 3008 3010 3011 3013
2891 2892 2893 2894 2894 2895 2896 2897 2898 2899 2900 2901 2902 2904 2905 2906 2906 2907 2908 2909 2910 2911 2912 2914 2916 2917 2919 2921 2922 2924 2926 2928 2930 2931 2933 2933 2934 2935 2937 2939 2941 2942 2944 2946 2947 2948 2950 2951 2953 2955 2956 2958 2959 2960 2961 2962 2963 2964 2966 2967 2968 2970 2971 2973 2975 2977 2979 2980 2982 2983 2985 2987 2988 2990 2992 2994 2995 2996 2998 3000 3002 3004 3006 3007 3009 3011
2887 2888 2888 2889 2889 2890 2891 2892 2893 2894 2895 2896 2897 2898 2899 2900 2901 2902 2903 2904 2905 2906 2907 2908 2910 2912 2914 2916 2917 2920 2922 2924 2926 2927 2929 2929 2930 2931 2933 2934 2936 2938 2940 2941 2943 2944 2946 2947 2949 2951 2952 2954 2955 2956 2958 2959 2960 2961 2963 2964 2966 2967 2968 2970 2972 2974 2976 2977 2979 2980 2982 2984 2985 2987 2989 2991 2993 2995 2996 2997 2999 3001 3003 3005 3006 3008
2884 2884 2884 2884 2885 2885 2886 2886 2887 2889 2890 2891 2891 2893 2894 2895 2896 2897 2898 2899 2900 2901 2902 2903 2905 2907 2908 2910 2912 2914 2917 2919 2921 2923 2924 2925 2926 2927 2929 2930 2932 2935 2936 2937 2938 2940 2942 2943 2945 2946 2948 2950 2951 2953 2955 2956 2957 2959 2960 2961 2962 2964 2966 2967 2969 2971 2972 2974 2976 2977 2979 2981 2983 2985 2987 2990 2992 2994 2995 2996 2997 2999 3001 3002 3004 3005
2881 2881 2881 2881 2881 2881 2881 2882 2883 2884 2885 2885 2886 2887 2888 2890 2891 2891 2893 2894 2895 2896 2897 2898 2899 2901 2903 2905 2907 2909 2911 2914 2916 2917 2919 2921 2922 2923 2925 2926 2928 2931 2932 2933 2935 2936 2937 2939 2940 2942 2943 2945 2947 2950 2951 2953 2954 2955 2956 2958 2959 2961 2962 2964 2966 2967 2969 2971 2973 2975 2976 2978 2980 2982 2985 2987 2989 2991 2992 2994 2995 2996 2998 3000 3001 3002
2878 2878 2878 2878 2878 2878 2878 2878 2879 2879 2880 2881 2881 2882 2883 2884 2886 2886 2888 2889 2890 2891 2892 2893 2894 2896 2898 2900 2902 2904 2906 2908 2910 2912 2914 2916 2918 2919 2921 2922 2924 2926 2928 2930 2931 2932 2933 2934 2936 2937 2939 2941 2944 2946 2948 2950 2951 2952 2953 2955 2957 2958 2960 2961 2962 2964 2966 2968 2970 2972 2974 2975 2977 2979 2981 2983 2985 2986 2988 2989 2991 2993 2994 2996 2998 2999
2876 2876 2876 2876 2875 2875 2875 2875 2875 2876 2876 2876 2877 2878 2879 2880 2881 2881 2882 2883 2884 2886 2887 2888 2889 2891 2893 2895 2897 2899 2901 2903 2905 2907 2909 2911 2913 2915 2916 2918 2920 2922 2924 2926 2927 2928 2929 2930 2932 2934 2936 2938 2940 2942 2945 2947 2948 2949 2951 2952 2953 2954 2956 2958 2959 2961 2963 2965 2967 2969 2971 2972 2973 2975 2976 2979 2981 2983 2984 2986 2988 2990 2991 2993 2994 2996
2873 2873 2873 2873 2873 2873 2873 2873 2872 2873 2873 2873 2873 2874 2875 2875 2875 2876 2877 2878 2879 2881 2882 2883 2884 2886 2888 2890 2892 2894 2896 2898 2900 2901 2904 2906 2908 2910 2912 2913 2915 2917 2919 2921 2922 2924 2925 2927 2928 2930 2932 2934 2936 2938 2940 2942 2944 2946 2947 2948 2949 2950 2952 2954 2956 2958 2960 2961 2964 2966 2968 2970 2971 2972 2973 2975 2977 2979 2981 2983 2985 2987 2988 2990 2991 2993
2870 2870 2870 2870 2870 2870 2870 2870 2870 2870 2870 2870 2870 2871 2871 2871 2871 2871 2872 2873 2874 2876 2876 2878 2879 2881 2882 2884 2887 2889 2891 2893 2895 2896 2898 2901 2903 2906 2907 2909 2910 2912 2914 2916 2918 2920 2921 2923 2925 2926 2928 2930 2931 2934 2936 2938 2941 2942 2944 2945 2946 2948 2950 2951 2953 2955 2956 2958 2960 2963 2965 2967 2968 2970 2971 2973 2975 2976 2978 2980 2982 2984 2986 2987 2989 2990
2868 2867 2867 2868 2868 2868 2867 2868 2868 2868 2867 2867 2867 2867 2867 2867 2868 2868 2868 2869 2869 2870 2871 2873 2874 2875 2876 2879 2881 2884 2886 2887 2889 2891 2893 2896 2898 2901 2903 2905 2906 2908 2910 2912 2913 2915 2917 2919 2921 2922 2924 2926 2927 2929 2931 2934 2936 2938 2940 2941 2943 2944 2946 2947 2949 2951 2953 2955 2957 2959 2961 2963 2966 2967 2969 2971 2972 2974 2975 2977 2979 2981 2982 2984 2986 2987
2865 2865 2865 2865 2865 2865 2865 2865 2865 2865 2865 2865 2865 2865 2865 2865 2865 2864 2864 2865 2865 2866 2867 2868 2869 2870 2871 2873 2875 2876 2880 2881 2883 2885 2888 2891 2893 2896 2898 2900 2902 2903 2905 2907 2909 2911 2913 2915 2917 2918 2920 2922 2924 2925 2927 2930 2932 2934 2936 2937 2939 2940 2941 2942 2945 2947 2949 2951 2953 2956 2958 2960 2962 2965 2967 2968 2970 2971 2972 2974 2976 2977 2979 2981 2983 2985
2863 2863 2863 2863 2862 2862 2862 2862 2862 2862 2862 2862 2862 2862 2862 2862 2862 2861 2861 2861 2861 2862 2863 2864 2864 2865 2866 2867 2868 2870 2872 2875 2877 2880 2883 2886 2888 2891 2894 2896 2897 2899 2901 2903 2904 2906 2909 2911 2912 2914 2916 2918 2920 2921 2923 2925 2928 2930 2932 2934 2935 2937 2938 2940 2942 2944 2946 2948 2950 2952 2954 2957 2959 2961 2963 2965 2966 2967 2969 2971 2973 2974 2976 2978 2980 2981
2861 2861 2861 2861 2860 2860 2860 2859 2860 2860 2860 2860 2860 2860 2860 2860 2859 2859 2859 2858 2858 2859 2859 2859 2860 2861 2861 2861 2863 2865 2867 2870 2872 2875 2878 2881 2883 2886 2888 2891 2893 2895 2896 2898 2900 2902 2904 2906 2908 2910 2913 2914 2916 2917 2919 2921 2924 2926 2928 2930 2932 2934 2936 2937 2939 2941 2942 2944 2946 2949 2951 2953 2955 2957 2959 2960 2962 2964 2966 2968 2970 2971 2973 2975 2977 2979
2860 2859 2859 2858 2858 2858 2857 2857 2857 2857 2857 2857 2857 2857 2857 2857 2857 2856 2856 2856 2856 2856 2856 2856 2856 2857 2857 2857 2858 2861 2863 2865 2867 2870 2872 2875 2878 2880 2882 2886 2888 2890 2892 2894 2896 2898 2900 2902 2904 2906 2908 2910 2911 2913 2915 2917 2920 2922 2924 2926 2928 2930 2931 2933 2935 2937 2939 2941 2943 2945 2947 2950 2952 2953 2955 2956 2959 2961 2963 2965 2966 2968 2970 2972 2974 2976
2858 2857 2856 2856 2856 2855 2855 2854 2854 2854 2854 2854 2854 2854 2854 2854 2854 2854 2854 2853 2854 2854 2853 2853 2853 2854 2854 2854 2855 2857 2858 2859 2861 2864 2867 2869 2871 2874 2877 2880 2883 2886 2888 2890 2892 2894 2896 2898 2900 2901 2903 2905 2907 2909 2911 2914 2916 2918 2920 2921 2924 2926 2927 2929 2931 2934 2936 2938 2939 2941 2943 2945 2947 2949 2951 2953 2955 2957 2959 2961 2963 2965 2966 2969 2971 2973
2856 2855 2854 2853 2853 2852 2852 2852 2851 2851 2851 2851 2851 2851 2851 2851 2851 2851 2851 2851 2851 2851 2851 2851 2851 2851 2851 2851 2852 2853 2854 2855 2856 2859 2861 2864 2866 2869 2871 2874 2877 2880 2883 2885 2887 2890 2891 2893 2895 2896 2898 2900 2903 2905 2907 2910 2912 2914 2916 2917 2919 2921 2923 2926 2928 2930 2932 2934 2936 2938 2940 2942 2944 2946 2947 2949 2951 2953 2955 2957 2959 2961 2963 2965 2967 2970
2853 2853 2852 2851 2850 2850 2849 2849 2848 2848 2848 2847 2847 2847 2848 2848 2848 2848 2848 2848 2848 2848 2848 2848 2848 2848 2848 2848 2849 2850 2851 2851 2853 2855 2856 2859 2861 2864 2866 2868 2871 2874 2877 2880 2882 2884 2886 2888 2890 2891 2893 2896 2898 2901 2903 2905 2907 2910 2912 2913 2915 2917 2919 2921 2924 2926 2928 2930 2932 2934 2936 2939 2941 2943 2945 2946 2948 2950 2951 2954 2956 2958 2960 2962 2964 2966
2851 2851 2850 2849 2848 2847 2846 2846 2846 2845 2845 2844 2844 2844 2844 2844 2845 2845 2845 2845 2845 2845 2845 2845 2845 2845 2846 2846 2846 2846 2847 2848 2849 2851 2853 2855 2857 2859 2861 2863 2866 2869 2871 2874 2876 2879 2881 2883 2884 2886 2888 2891 2894 2896 2898 2900 2903 2905 2907 2908 2910 2912 2915 2917 2920 2922 2924 2926 2928 2930 2933 2935 2937 2938 2940 2942 2944 2946 2948 2950 2952 2954 2956 2959 2961 2963